EW0214 Weather Reports


Display with metric or nautical units.
time (UTC)temp
F
wind
direction
speed
MPH
gust
MPH
rain 1hr
in
rain 24hr
in
rain mn
in
humidity
%
barometer
mb
20260510105828 69 142 2.0 6.0 0.00 0.00 0.00 86 1011.4
20260510105322 69 175 2.0 6.0 0.00 0.00 0.00 86 1011.2
20260510104816 69 161 2.0 5.0 0.00 0.00 0.00 86 1011.1
20260510104310 69 157 2.0 5.0 0.00 0.00 0.00 86 1011.0
20260510103804 69 150 2.0 5.0 0.00 0.00 0.00 86 1011.0
20260510103304 69 150 2.0 6.0 0.00 0.00 0.00 86 1010.9
20260510102801 69 150 2.0 6.0 0.00 0.00 0.00 86 1011.0
20260510102301 69 149 2.0 8.0 0.00 0.00 0.00 86 1011.0
20260510101801 69 145 2.0 8.0 0.00 0.00 0.00 85 1011.1
20260510101300 70 150 2.0 6.0 0.00 0.00 0.00 85 1011.1
20260510100803 70 145 3.0 7.0 0.00 0.00 0.00 85 1011.1
20260510100530 70 163 3.0 7.0 0.00 0.00 0.00 85 1011.0
20260510095759 70 171 3.0 8.0 0.00 0.00 0.00 85 1011.0
20260510095259 70 158 3.0 8.0 0.00 0.00 0.00 85 1011.0
20260510095031 70 144 2.0 8.0 0.00 0.00 0.00 84 1011.0
20260510094259 70 159 3.0 8.0 0.00 0.00 0.00 84 1010.9
20260510093800 70 143 3.0 7.0 0.00 0.00 0.00 84 1011.0
20260510093300 70 146 2.0 4.0 0.00 0.00 0.00 84 1011.1
20260510092757 70 146 2.0 5.0 0.00 0.00 0.00 84 1010.9
20260510092255 70 149 2.0 5.0 0.00 0.00 0.00 84 1011.0
20260510091754 70 148 2.0 4.0 0.00 0.00 0.00 83 1011.0
20260510091256 70 147 3.0 5.0 0.00 0.00 0.00 83 1010.9
20260510090756 70 144 3.0 7.0 0.00 0.00 0.00 83 1010.9
20260510090521 70 144 2.0 7.0 0.00 0.00 0.00 83 1011.1
20260510085745 71 136 1.0 3.0 0.00 0.00 0.00 83 1011.0
20260510085244 71 136 1.0 4.0 0.00 0.01 0.00 83 1010.9
20260510084745 71 136 1.0 4.0 0.00 0.01 0.00 83 1011.0
20260510084244 71 135 1.0 3.0 0.00 0.01 0.00 83 1011.0
20260510083745 71 135 2.0 4.0 0.00 0.01 0.00 82 1011.0
20260510083244 71 135 2.0 4.0 0.00 0.01 0.00 82 1011.0
20260510082746 71 135 2.0 4.0 0.00 0.01 0.00 82 1011.1
20260510082245 71 137 2.0 4.0 0.00 0.01 0.00 82 1011.1
20260510082017 71 136 1.0 4.0 0.00 0.01 0.00 82 1011.1
20260510081240 71 136 1.0 3.0 0.00 0.01 0.00 81 1011.2
20260510080740 71 136 1.0 4.0 0.00 0.01 0.00 81 1011.3
20260510080242 71 136 1.0 4.0 0.00 0.01 0.00 81 1011.2
20260510075742 71 136 0.0 3.0 0.00 0.01 0.00 81 1011.2
20260510075247 71 137 1.0 3.0 0.00 0.01 0.00 80 1011.1
20260510075242 71 137 0.0 2.0 0.00 0.01 0.00 81 1011.2
20260510074243 71 137 2.0 3.0 0.00 0.01 0.00 80 1011.1
20260510073741 71 136 2.0 4.0 0.00 0.01 0.00 80 1011.1
20260510073245 71 136 2.0 4.0 0.00 0.01 0.00 80 1011.3
20260510073239 72 134 2.0 4.0 0.00 0.01 0.00 79 1011.3
20260510072238 72 134 2.0 4.0 0.00 0.01 0.00 80 1011.4
20260510071738 72 129 2.0 4.0 0.00 0.01 0.00 80 1011.5
20260510071237 72 128 2.0 4.0 0.00 0.01 0.00 79 1011.5
20260510070738 72 129 2.0 4.0 0.00 0.01 0.00 79 1011.5
20260510070241 72 130 1.0 4.0 0.00 0.01 0.00 79 1011.4
20260510070237 72 129 1.0 4.0 0.00 0.01 0.00 79 1011.4
20260510065240 72 138 1.0 3.0 0.00 0.01 0.00 78 1011.2
20260510065235 72 130 2.0 4.0 0.00 0.01 0.00 78 1011.2
20260510064234 72 138 1.0 3.0 0.00 0.01 0.00 78 1011.1
20260510063735 72 139 2.0 3.0 0.00 0.01 0.00 78 1011.1
20260510063234 73 138 2.0 3.0 0.00 0.01 0.00 78 1011.1
20260510062733 73 139 2.0 4.0 0.00 0.01 0.00 78 1011.2
20260510062232 73 140 2.0 4.0 0.00 0.01 0.00 77 1011.2
20260510062004 73 140 1.0 3.0 0.00 0.01 0.00 77 1011.2
20260510061459 73 140 1.0 2.0 0.00 0.01 0.00 77 1011.0
20260510060721 73 140 1.0 3.0 0.00 0.01 0.00 77 1011.2
20260510060213 73 140 1.0 3.0 0.00 0.01 0.00 77 1011.2
20260510055707 74 140 1.0 3.0 0.00 0.01 0.00 77 1011.1
20260510055201 74 140 1.0 3.0 0.00 0.01 0.00 77 1011.1
20260510054655 74 140 1.0 2.0 0.00 0.01 0.00 77 1011.1
20260510054420 74 140 1.0 2.0 0.00 0.01 0.00 77 1011.1
20260510054307 74 140 1.0 2.0 0.00 0.01 0.00 77 1011.1
20260510053146 74 140 1.0 3.0 0.00 0.01 0.00 77 1011.1
20260510052646 74 140 1.0 3.0 0.00 0.01 0.00 77 1011.2
20260510052146 74 140 1.0 3.0 0.00 0.01 0.00 77 1011.2
20260510051919 74 140 1.0 3.0 0.00 0.01 0.00 77 1011.4
20260510051417 75 140 1.0 3.0 0.00 0.01 0.00 77 1011.2
20260510050917 75 141 0.0 2.0 0.00 0.01 0.00 77 1011.1
20260510050147 75 141 1.0 2.0 0.00 0.01 0.00 77 1011.1
20260510045644 75 141 1.0 3.0 0.00 0.01 0.01 77 1011.0
20260510045144 75 141 1.0 3.0 0.00 0.01 0.01 77 1011.0
20260510044642 75 141 1.0 2.0 0.00 0.01 0.01 77 1011.0
20260510044143 76 141 1.0 3.0 0.00 0.01 0.01 77 1011.0
20260510043916 76 141 0.0 3.0 0.00 0.01 0.01 77 1011.1
20260510043140 76 142 0.0 0.0 0.00 0.01 0.01 76 1011.1
20260510042639 76 142 0.0 0.0 0.00 0.01 0.01 76 1011.0
20260510042139 76 142 0.0 0.0 0.00 0.01 0.01 76 1010.9
20260510041638 77 142 0.0 0.0 0.00 0.01 0.01 76 1010.8
20260510041140 77 142 0.0 0.0 0.00 0.01 0.01 76 1010.9
20260510040639 77 142 0.0 0.0 0.00 0.01 0.01 76 1010.7
20260510040140 77 142 0.0 0.0 0.00 0.01 0.01 76 1010.7
20260510035640 77 142 0.0 0.0 0.00 0.01 0.01 76 1010.6
20260510035140 77 142 0.0 0.0 0.00 0.01 0.01 76 1010.6
20260510034912 78 142 0.0 0.0 0.00 0.01 0.01 75 1010.5
20260510034139 78 142 0.0 0.0 0.00 0.01 0.01 76 1010.5
20260510033916 78 142 0.0 0.0 0.00 0.01 0.01 75 1010.4
20260510033639 78 142 0.0 0.0 0.00 0.01 0.01 75 1010.5
20260510032639 78 142 0.0 0.0 0.00 0.01 0.01 75 1010.5
20260510032139 78 142 0.0 0.0 0.00 0.01 0.01 75 1010.4
20260510031639 78 142 0.0 0.0 0.00 0.01 0.01 75 1010.4
20260510031410 78 142 0.0 0.0 0.00 0.01 0.01 75 1010.4
20260510030635 79 142 0.0 0.0 0.00 0.01 0.01 75 1010.2
20260510030135 79 142 0.0 1.0 0.00 0.01 0.01 75 1010.2
20260510025628 79 142 0.0 4.0 0.00 0.01 0.01 75 1010.1
20260510025123 79 142 1.0 4.0 0.00 0.01 0.01 75 1010.0
20260510024617 79 142 2.0 4.0 0.00 0.01 0.01 75 1009.9
20260510024111 79 142 2.0 4.0 0.00 0.01 0.01 75 1009.8
20260510023605 79 140 2.0 5.0 0.00 0.01 0.01 75 1009.9
20260510023058 79 140 2.0 5.0 0.00 0.01 0.01 75 1009.7
20260510022553 80 150 2.0 5.0 0.00 0.01 0.01 74 1009.7
20260510022318 80 142 2.0 4.0 0.00 0.01 0.01 73 1009.7
20260510021541 80 135 2.0 4.0 0.00 0.01 0.01 73 1009.6
20260510021306 80 134 3.0 5.0 0.00 0.01 0.01 72 1009.6
20260510020755 81 153 2.0 6.0 0.00 0.01 0.01 71 1009.5
20260510020630 80 134 2.0 6.0 0.00 0.01 0.01 72 1009.6
20260510015517 81 146 1.0 3.0 0.00 0.01 0.01 70 1009.5
20260510015012 82 146 1.0 3.0 0.00 0.01 0.01 70 1009.4
20260510014505 82 146 1.0 3.0 0.00 0.01 0.01 69 1009.4
20260510013959 82 146 0.0 0.0 0.00 0.01 0.01 68 1009.3
20260510013455 83 146 0.0 0.0 0.00 0.01 0.01 68 1009.2
20260510013450 83 146 0.0 0.0 0.00 0.01 0.01 68 1009.2
20260510012712 83 146 0.0 0.0 0.00 0.01 0.01 68 1009.1
20260510011935 83 146 0.0 0.0 0.00 0.01 0.01 67 1009.1
20260510011429 83 146 0.0 0.0 0.00 0.01 0.01 67 1009.0
20260510011156 83 146 0.0 0.0 0.00 0.01 0.01 67 1009.0
20260510010918 83 146 1.0 2.0 0.00 0.01 0.01 67 1009.0
20260510005911 83 146 2.0 5.0 0.00 0.01 0.01 66 1009.4
20260510005637 84 146 2.0 7.0 0.00 0.01 0.01 66 1009.0
20260510004859 84 144 3.0 7.0 0.00 0.01 0.01 66 1008.9
20260510004353 84 127 3.0 7.0 0.00 0.01 0.01 65 1008.8
20260510003846 84 144 4.0 7.0 0.00 0.01 0.01 65 1008.8
20260510003613 84 123 3.0 7.0 0.00 0.01 0.01 65 1008.7
20260510002835 84 157 3.0 7.0 0.00 0.01 0.01 64 1008.8
20260510002329 85 140 3.0 6.0 0.00 0.01 0.01 64 1008.7
20260510001824 85 144 3.0 7.0 0.00 0.01 0.01 64 1008.7
20260510001317 85 152 3.0 7.0 0.00 0.01 0.01 63 1008.6
20260510000811 85 146 3.0 7.0 0.00 0.01 0.01 63 1008.5
20260510000311 85 136 3.0 7.0 0.00 0.01 0.01 62 1008.5
20260510000304 85 151 3.0 8.0 0.00 0.01 0.01 62 1008.4
20260509235253 85 153 3.0 8.0 0.00 0.01 0.01 61 1008.4
20260509234747 85 140 3.0 7.0 0.00 0.01 0.01 61 1008.4
20260509234241 85 145 2.0 7.0 0.00 0.01 0.01 61 1008.3
20260509233735 86 67 2.0 6.0 0.00 0.01 0.01 60 1008.2
20260509233229 86 121 2.0 8.0 0.00 0.01 0.01 60 1008.2
20260509232955 86 171 2.0 8.0 0.00 0.01 0.01 60 1008.2
20260509232217 86 72 3.0 9.0 0.00 0.01 0.01 60 1008.1
20260509231710 86 122 2.0 9.0 0.00 0.01 0.01 59 1008.2
20260509231204 86 355 2.0 6.0 0.00 0.01 0.01 59 1008.2
20260509230659 86 145 3.0 7.0 0.00 0.01 0.01 58 1008.2
20260509230420 87 134 3.0 8.0 0.00 0.01 0.01 57 1008.2
20260509230255 86 120 3.0 7.0 0.00 0.01 0.01 58 1008.2
20260509225141 87 86 3.0 8.0 0.00 0.01 0.01 56 1008.2
20260509224635 87 78 3.0 9.0 0.00 0.01 0.01 53 1008.2
20260509224129 87 116 3.0 9.0 0.00 0.01 0.01 51 1008.1
20260509223854 87 87 3.0 8.0 0.00 0.01 0.01 51 1008.3
20260509223117 87 83 3.0 9.0 0.00 0.01 0.01 50 1008.1
20260509222611 87 15 4.0 9.0 0.00 0.01 0.01 50 1008.0
20260509222106 87 119 4.0 9.0 0.00 0.01 0.01 48 1008.0
20260509221559 87 73 4.0 8.0 0.00 0.01 0.01 49 1008.0
20260509221053 87 42 3.0 7.0 0.00 0.01 0.01 49 1007.8
20260509220547 86 145 3.0 7.0 0.00 0.01 0.01 51 1007.8
20260509220041 86 120 2.0 6.0 0.00 0.01 0.01 51 1007.7
20260509215535 86 72 1.0 5.0 0.00 0.01 0.01 53 1007.8
20260509215029 86 149 0.0 4.0 0.00 0.01 0.01 53 1008.0
20260509214524 85 160 1.0 6.0 0.00 0.01 0.01 53 1008.0
20260509214018 85 161 1.0 6.0 0.00 0.01 0.01 53 1008.1
20260509213512 85 144 2.0 9.0 0.00 0.01 0.01 54 1008.3
20260509213006 84 156 3.0 9.0 0.00 0.01 0.01 53 1008.3
20260509212458 84 167 3.0 7.0 0.00 0.01 0.01 52 1008.6
20260509211953 84 144 4.0 12.0 0.00 0.01 0.01 52 1008.7
20260509211718 84 195 4.0 12.0 0.00 0.01 0.01 51 1008.9
20260509210941 84 141 4.0 12.0 0.00 0.01 0.01 54 1008.8
20260509210435 83 96 5.0 12.0 0.00 0.01 0.01 54 1008.8
20260509205929 84 92 4.0 12.0 0.00 0.01 0.01 56 1008.9
20260509205423 83 148 4.0 10.0 0.00 0.01 0.01 55 1008.9
20260509204918 83 88 6.0 14.0 0.00 0.01 0.01 53 1008.8
20260509204416 83 198 6.0 14.0 0.00 0.01 0.01 54 1009.0
20260509203917 85 184 4.0 11.0 0.00 0.01 0.01 57 1009.1
20260509203416 86 132 5.0 12.0 0.00 0.01 0.01 57 1009.1
20260509202917 87 151 5.0 17.0 0.00 0.01 0.01 58 1009.1
20260509202417 88 82 4.0 17.0 0.00 0.01 0.01 58 1009.2
20260509201922 91 111 5.0 17.0 0.00 0.01 0.01 56 1009.3
20260509201917 89 23 5.0 17.0 0.00 0.01 0.01 58 1009.1
20260509200916 93 344 4.0 11.0 0.00 0.01 0.01 53 1009.3
20260509200417 95 5 3.0 11.0 0.00 0.01 0.01 51 1009.3
20260509195911 96 329 1.0 5.0 0.00 0.01 0.01 51 1009.3
20260509195434 97 215 1.0 3.0 0.00 0.01 0.01 47 1009.0
20260509195426 96 215 1.0 3.0 0.00 0.01 0.01 49 1009.2
20260509194411 98 215 1.0 4.0 0.00 0.01 0.01 47 1009.2
20260509193912 97 215 1.0 8.0 0.00 0.01 0.01 46 1009.3
20260509193411 97 171 1.0 8.0 0.00 0.01 0.01 48 1009.2
20260509192911 96 200 1.0 5.0 0.00 0.01 0.01 48 1009.3
20260509192413 96 190 2.0 6.0 0.00 0.01 0.01 48 1009.3
20260509191913 96 321 2.0 6.0 0.00 0.01 0.01 49 1009.4
20260509191413 96 166 2.0 5.0 0.00 0.01 0.01 49 1009.5
20260509190911 95 150 1.0 4.0 0.00 0.01 0.01 50 1009.6
20260509190413 95 205 1.0 4.0 0.00 0.01 0.01 51 1009.5
20260509185910 95 322 2.0 6.0 0.00 0.01 0.01 52 1009.7
20260509185409 94 322 1.0 6.0 0.00 0.01 0.01 55 1009.7
20260509184905 93 165 1.0 2.0 0.00 0.01 0.01 54 1009.8
20260509184406 93 164 1.0 3.0 0.00 0.01 0.01 54 1009.9
20260509183906 93 151 1.0 5.0 0.00 0.01 0.01 55 1010.0
20260509183408 92 150 1.0 5.0 0.00 0.01 0.01 56 1010.1
20260509182905 91 326 1.0 3.0 0.00 0.01 0.01 59 1010.1
20260509182636 90 313 1.0 3.0 0.00 0.01 0.01 58 1010.1
20260509182136 90 313 1.0 3.0 0.00 0.01 0.01 59 1010.4
20260509181403 90 314 2.0 6.0 0.00 0.01 0.01 59 1010.6
20260509180905 89 341 1.0 6.0 0.00 0.01 0.01 65 1010.5
20260509180404 88 345 0.0 5.0 0.00 0.01 0.01 64 1010.4
20260509180129 88 242 1.0 2.0 0.00 0.01 0.01 63 1010.4
20260509175352 88 242 1.0 3.0 0.00 0.01 0.01 65 1010.5
20260509174846 88 240 0.0 3.0 0.00 0.01 0.01 64 1010.7
20260509174340 87 240 1.0 2.0 0.00 0.01 0.01 66 1010.6
20260509174104 87 217 1.0 3.0 0.00 0.01 0.01 69 1010.9
20260509173325 86 215 1.0 4.0 0.00 0.01 0.01 69 1011.1
20260509172821 85 180 1.0 5.0 0.00 0.01 0.01 70 1011.2
20260509172314 85 188 1.0 5.0 0.00 0.01 0.01 71 1011.1
20260509171809 84 170 0.0 5.0 0.00 0.01 0.01 73 1011.0
20260509171302 83 175 0.0 2.0 0.00 0.01 0.01 75 1010.9
20260509170756 83 175 1.0 5.0 0.00 0.01 0.01 76 1011.0
20260509170250 82 174 1.0 5.0 0.00 0.01 0.01 77 1011.1
20260509165744 82 184 1.0 4.0 0.00 0.01 0.01 79 1011.2
20260509165237 81 184 1.0 6.0 0.00 0.01 0.01 81 1011.3
20260509165003 80 168 1.0 6.0 0.00 0.01 0.01 82 1011.2
20260509164225 80 126 0.0 2.0 0.00 0.01 0.01 84 1011.3
20260509163720 80 126 1.0 3.0 0.00 0.01 0.01 86 1011.3
20260509163446 79 126 1.0 3.0 0.00 0.01 0.01 87 1011.3
20260509162708 79 117 1.0 3.0 0.00 0.01 0.01 87 1011.3
20260509162203 78 110 1.0 3.0 0.00 0.01 0.01 88 1011.3
20260509161656 78 252 0.0 1.0 0.00 0.01 0.01 89 1011.3
20260509161150 78 252 0.0 3.0 0.00 0.01 0.01 89 1011.2
20260509160917 78 251 0.0 3.0 0.00 0.01 0.01 90 1011.2
20260509160138 77 257 0.0 2.0 0.00 0.01 0.01 90 1011.2
20260509155632 77 184 0.0 1.0 0.00 0.01 0.01 90 1011.3
20260509155126 77 184 0.0 2.0 0.00 0.01 0.01 90 1011.1
20260509154621 76 182 1.0 5.0 0.00 0.01 0.01 90 1011.2
20260509154114 76 173 1.0 5.0 0.00 0.01 0.01 91 1011.2
20260509153609 76 158 2.0 7.0 0.00 0.01 0.01 90 1011.3
20260509153334 76 153 2.0 7.0 0.00 0.01 0.01 90 1011.3
20260509152556 76 172 2.0 7.0 0.00 0.01 0.01 91 1011.5
20260509152050 75 157 2.0 7.0 0.00 0.01 0.01 90 1011.6
20260509151544 75 113 3.0 8.0 0.00 0.01 0.01 90 1011.5
20260509151038 75 165 2.0 8.0 0.00 0.01 0.01 90 1011.3
20260509150533 74 174 2.0 5.0 0.00 0.01 0.01 90 1011.4
20260509150026 74 148 1.0 7.0 0.00 0.01 0.01 90 1011.6
20260509145521 74 143 2.0 7.0 0.00 0.01 0.01 90 1011.4
20260509145014 74 143 3.0 7.0 0.00 0.01 0.01 90 1011.3
20260509144509 74 142 3.0 7.0 0.00 0.01 0.01 90 1011.1
20260509144004 74 149 3.0 7.0 0.00 0.01 0.01 90 1011.1
20260509143958 74 159 2.0 7.0 0.00 0.01 0.01 90 1011.1
20260509142951 74 153 1.0 4.0 0.00 0.01 0.01 90 1010.9
20260509142444 74 142 2.0 6.0 0.00 0.01 0.01 90 1010.8
20260509142209 74 140 4.0 9.0 0.00 0.01 0.01 90 1010.9
20260509141432 74 119 4.0 9.0 0.00 0.01 0.01 90 1010.7
20260509140926 74 140 2.0 7.0 0.00 0.01 0.01 90 1010.7
20260509140420 74 142 2.0 7.0 0.00 0.01 0.01 90 1010.7
20260509140146 74 165 1.0 7.0 0.00 0.01 0.01 90 1010.7
20260509135409 74 317 0.0 3.0 0.00 0.01 0.01 90 1010.7
20260509134902 74 320 0.0 0.0 0.00 0.01 0.01 90 1010.9
20260509134356 74 320 0.0 1.0 0.00 0.01 0.01 90 1011.0
20260509133850 74 320 0.0 2.0 0.00 0.01 0.01 90 1011.1
20260509133345 74 320 0.0 2.0 0.00 0.01 0.01 90 1011.1
20260509132846 74 320 0.0 0.0 0.00 0.01 0.01 90 1011.0
20260509132346 73 320 0.0 4.0 0.00 0.01 0.01 90 1011.1
20260509131846 73 320 0.0 4.0 0.00 0.01 0.01 90 1011.2
20260509131345 73 67 0.0 0.0 0.00 0.01 0.01 90 1011.3
20260509130844 73 69 0.0 0.0 0.00 0.01 0.01 90 1011.1
20260509130350 73 78 0.0 0.0 0.00 0.01 0.01 89 1010.9
20260509130346 73 70 0.0 0.0 0.00 0.01 0.01 90 1010.9
20260509125617 73 78 0.0 0.0 0.00 0.01 0.01 89 1010.8
20260509124846 73 78 0.0 0.0 0.00 0.01 0.01 89 1010.8
20260509124345 73 78 0.0 0.0 0.00 0.01 0.01 89 1010.7
20260509123843 73 78 0.0 0.0 0.00 0.01 0.01 89 1010.8
20260509123344 73 78 0.0 0.0 0.00 0.01 0.01 89 1011.0
20260509122842 73 78 0.0 0.0 0.00 0.01 0.01 89 1010.8
20260509122344 73 78 0.0 0.0 0.00 0.01 0.01 89 1010.8
20260509121840 73 78 0.0 0.0 0.00 0.01 0.01 89 1010.8
20260509121339 73 78 0.0 3.0 0.00 0.01 0.01 89 1011.1
20260509121109 73 78 1.0 3.0 0.00 0.01 0.01 89 1011.0
20260509120339 73 78 1.0 3.0 0.00 0.01 0.01 89 1011.0
20260509115839 73 0 0.0 1.0 0.00 0.01 0.01 89 1011.1
20260509115344 73 0 0.0 2.0 0.00 0.01 0.01 89 1010.9
20260509115339 73 0 0.0 1.0 0.00 0.01 0.01 89 1011.0
20260509114609 73 0 1.0 4.0 0.00 0.01 0.01 89 1011.2
20260509113840 73 0 1.0 4.0 0.00 0.01 0.01 89 1011.3
20260509113339 73 0 0.0 4.0 0.00 0.01 0.01 89 1011.5
20260509112840 73 0 0.0 4.0 0.00 0.01 0.01 89 1011.5
20260509112338 73 0 0.0 1.0 0.00 0.01 0.01 89 1011.6
20260509111840 73 0 0.0 0.0 0.00 0.01 0.01 89 1011.7
20260509111339 73 0 0.0 3.0 0.00 0.01 0.01 89 1011.8
20260509110840 73 0 1.0 5.0 0.00 0.01 0.01 89 1011.8